User: anonymous   Login
Location: Lafig�re
(44.4503°N, 4.0357°E)
Time: 06:32:44
(UTC+00:00)
Language:

Abrixas rocket - Orbit

View from above orbital plane
View from above orbital plane
View from above satellite
View from above satellite

Ground track
Ground track

The orbit data is extracted from the following two-line orbital elements,

1 25723U 99022C   20339.51750660  .00059430  00000-0  26584-3 0  9997
2 25723  48.4087 145.2548 0001441 196.7010 163.3899 15.83520772204831
Epoch (UTC): 04 December 2020 12:25:12
Eccentricity: 0.0001441
inclination: 48.4087°
perigee height: 319 km
apogee height: 321 km
right ascension of ascending node: 145.2548°
argument of perigee: 196.7010°
revolutions per day: 15.83520772
mean anomaly at epoch: 163.3899°
orbit number at epoch: 20483

The dashed part of the orbit path shows where the satellite is in the earth's shadow,  

DLR